Location: Toronto
(43.6672°N, 79.4170°W)
Time: 11:57:13
(UTC-04:00)

ISS - All Passes

Search period start: 25 July 2014 00:00
Search period end: 04 August 2014 00:00
Orbit: 411 x 420 km, 51.6° (Epoch: 25 July)

Date Brightness Start Highest point End Pass type
(mag) Time Alt. Az. Time Alt. Az. Time Alt. Az.
25 Jul - 02:08:44 10° SW 02:12:03 71° SE 02:15:25 10° ENE visible
25 Jul - 03:46:05 10° WNW 03:49:02 28° NNW 03:52:00 10° NE visible
25 Jul - 05:23:52 10° NW 05:26:30 21° N 05:29:08 10° NE visible
25 Jul - 07:00:36 10° NW 07:03:50 42° NNE 07:07:03 10° E daylight
25 Jul - 08:37:28 10° WNW 08:40:29 31° SW 08:43:30 10° SSE daylight
26 Jul - 01:20:11 10° SSW 01:23:21 41° SE 01:26:33 10° ENE visible
26 Jul - 02:56:59 10° W 03:00:07 35° NNW 03:03:16 10° NE visible
26 Jul - 04:34:54 10° NW 04:37:31 20° N 04:40:08 10° NE visible
26 Jul - 06:11:53 10° NW 06:14:57 31° NNE 06:18:00 10° E daylight
26 Jul - 07:48:31 10° WNW 07:51:49 53° SW 07:55:05 10° SE daylight
27 Jul - 00:31:56 10° SSW 00:34:43 25° SE 00:37:31 10° E night (unlit)
27 Jul - 02:08:00 10° WSW 02:11:16 50° NNW 02:14:34 10° NE visible
27 Jul - 03:45:52 10° WNW 03:48:32 21° N 03:51:13 10° NE visible
27 Jul - 05:23:09 10° NW 05:26:02 25° NNE 05:28:55 10° ENE visible
27 Jul - 06:59:42 10° WNW 07:03:05 89° SSW 07:06:27 10° ESE daylight
27 Jul - 08:37:52 10° WSW 08:39:21 12° SW 08:40:49 10° SSW daylight
27 Jul - 23:44:11 10° SSE 23:46:09 15° SE 23:48:07 10° E night (unlit)
28 Jul - 01:19:08 10° WSW 01:22:29 77° NNW 01:25:51 10° NE visible
28 Jul - 02:56:47 10° WNW 02:59:36 24° NNW 03:02:25 10° NE visible
28 Jul - 04:34:22 10° NW 04:37:06 22° N 04:39:49 10° ENE visible
28 Jul - 06:10:59 10° NW 06:14:19 58° NNE 06:17:39 10° ESE daylight
28 Jul - 07:48:12 10° W 07:50:48 21° SW 07:53:23 10° S daylight
29 Jul - 00:30:27 10° SW 00:33:45 65° SE 00:37:06 10° ENE visible
29 Jul - 02:07:42 10° W 02:10:42 29° NNW 02:13:41 10° NE visible
29 Jul - 03:45:32 10° NW 03:48:09 21° N 03:50:47 10° NE visible
29 Jul - 05:22:18 10° NW 05:25:31 40° NNE 05:28:43 10° E visible
29 Jul - 06:59:07 10° WNW 07:02:13 34° SW 07:05:18 10° SSE daylight
29 Jul - 23:41:59 10° SSW 23:45:06 37° SE 23:48:15 10° ENE night (unlit)
30 Jul - 01:18:41 10° W 01:21:50 37° NNW 01:25:01 10° NE visible
30 Jul - 02:56:36 10° NW 02:59:13 20° N 03:01:50 10° NE visible
30 Jul - 04:33:38 10° NW 04:36:40 30° NNE 04:39:42 10° E visible
30 Jul - 06:10:15 10° WNW 06:13:34 59° SW 06:16:53 10° SE daylight
30 Jul - 22:53:51 10° S 22:56:32 22° SE 22:59:13 10° E night (unlit)
31 Jul - 00:29:45 10° WSW 00:33:02 54° NNW 00:36:21 10° NE visible
31 Jul - 02:07:36 10° WNW 02:10:18 22° N 02:12:59 10° NE visible
31 Jul - 03:44:57 10° NW 03:47:48 25° NNE 03:50:38 10° ENE visible
31 Jul - 05:21:30 10° WNW 05:24:53 84° NNE 05:28:15 10° ESE visible
31 Jul - 06:59:24 10° W 07:01:11 14° SW 07:02:57 10° SSW daylight
31 Jul - 22:06:18 10° SSE 22:08:01 13° SE 22:09:44 10° E night (unlit)
31 Jul - 23:40:58 10° WSW 23:44:19 84° NNW 23:47:41 10° ENE night (unlit)
01 Aug - 01:18:34 10° WNW 01:21:24 25° NNW 01:24:15 10° NE visible
01 Aug - 02:56:12 10° NW 02:58:54 22° N 03:01:36 10° ENE visible
01 Aug - 04:32:50 10° NW 04:36:09 54° NNE 04:39:28 10° ESE visible
01 Aug - 06:09:58 10° W 06:12:41 23° SW 06:15:23 10° S daylight
01 Aug - 22:52:22 10° SW 22:55:39 58° SE 22:58:57 10° ENE visible
02 Aug - 00:29:32 10° W 00:32:33 30° NNW 00:35:35 10° NE visible
02 Aug - 02:07:23 10° NW 02:10:00 20° N 02:12:37 10° NE visible
02 Aug - 03:44:12 10° NW 03:47:23 37° NNE 03:50:33 10° E visible
02 Aug - 05:20:58 10° WNW 05:24:07 38° SW 05:27:16 10° SSE visible
02 Aug - 22:04:00 10° SSW 22:07:03 34° SE 22:10:08 10° ENE visible
02 Aug - 23:40:34 10° W 23:43:45 40° NNW 23:46:57 10° NE visible
03 Aug - 01:18:30 10° NW 01:21:07 21° N 01:23:44 10° NE visible
03 Aug - 02:55:35 10° NW 02:58:35 29° NNE 03:01:34 10° E visible
03 Aug - 04:32:10 10° WNW 04:35:31 65° SW 04:38:51 10° SE visible
03 Aug - 21:15:59 10° S 21:18:32 21° SE 21:21:06 10° E visible
03 Aug - 22:51:43 10° WSW 22:55:01 58° NNW 22:58:20 10° NE visible
